Location: Unspecified
(0.0000°N, 0.0000°E)
Time: 05:32:54
(UTC+00:00)

ISS - Pass Details

Date: 22 April 2017
Orbit: 400 x 409 km, 51.6° (Epoch: 24 April)

Event Time Altitude Azimuth Distance (km) Brightness Sun altitude
Rises 19:49:27 0° 288° (WNW) 2,308 1.3 -27.0°
Reaches altitude 10° 19:53:03 10° 246° (WSW) 1,456 -0.4 -27.9°
Enters shadow 19:53:41 11° 235° (SW) 1,426 -0.6 -28.1°
